Location: Unspecified
(50.0830°N, 0.0000°E)
Time: 04:38:46
(UTC+00:00)

Envisat - Pass Details

Date: 27 November 2019
Orbit: 764 x 766 km, 98.1° (Epoch: 08 December)

Event Time Altitude Azimuth Distance (km) Brightness Sun altitude
Rises 18:59:50 0° 202° (SSW) 3,221 6.5 -27.5°
Reaches altitude 10° 19:02:35 10° 216° (SW) 2,300 5.9 -28.0°
Maximum altitude 19:06:35 23° 269° (W) 1,583 5.3 -28.6°
Drops below altitude 10° 19:10:37 10° 321° (NW) 2,313 5.9 -29.3°
Sets 19:13:24 0° 336° (NNW) 3,244 6.6 -29.7°
